sat.trackr.live / text

‹ back to catalog

GEESAT-1 04

NORAD 52788 · 2022-058D

PAYLOAD ACTIVE UNKNOWN

§ Identity

Operator
Country
PRC
Launch date
2022-06-02
Launch site
XICLF
Launch vehicle
Mass (kg)
RCS (m²)

External: N2YO · Heavens-Above · Gunter

§ Orbital elements

Epoch: 2026-09-20T22:50:55.976064Z

Period
97.19 min
Inclination
50.0036°
Eccentricity
0.0009463
Mean motion
14.81609376 rev/d
Perigee alt
617.6 km
Apogee alt
630.9 km
Semi-major
7,002.4 km
B*
1.3364e-4
RAAN
120.7886°
Arg perigee
153.5761°
Mean anomaly
206.5661°
Rev number
23,412

§ Raw data

GEESAT-1 041 52788U 22058D   26263.95203676  .00000838  00000+0  13364-3 0  99922 52788  50.0036 120.7886 0009463 153.5761 206.5661 14.81609376234121

JSON: /api/v1/satellites/52788 · /tle

For live sub-satellite position, see the globe view (requires WebGL).

§ Visibility from observer

Set your observer location to see the next 7 days of passes ≥ 10°. The values pass through the URL so the page stays shareable.

No JS? Fill the form by hand. The geolocation button needs JavaScript.